Prague, Czech Republic

10:46 PM CEST on June 22, 2017 (GMT +0200)
Ruzyne

Weather History for LKPR - March, 2014

Change the Weather History Date:

Monday, March 10, 2014

  Actual Average Record
Temperature  
Mean Temperature 42 °F -  
Max Temperature 56 °F 49 °F 59 °F (2003)
Min Temperature 29 °F 32 °F 14 °F (2005)
Degree Days  
Heating Degree Days 22    
Moisture  
Dew Point 27 °F    
Average Humidity 54    
Maximum Humidity 93    
Minimum Humidity 19    
Precipitation  
Precipitation 0.00 in 0.04 in - ()
Sea Level Pressure  
Sea Level Pressure 30.34 in    
Wind  
Wind Speed 4 mph ()    
Max Wind Speed 11 mph    
Max Gust Speed -    
Visibility 7.2 miles    
Events      
Averages and records for this station are not official NWS values.
T = Trace of Precipitation, MM = Missing Value Source: Averaged Metar Reports

Daily Weather History Graph

Daily Weather History Graph

Search for Another Location

Airport or City:

Trip Planner

Search our weather history database for the weather conditions in past years. The results will help you decide how hot, cold, wet, or windy it might be!

Date:

Astronomy

Mar. 10, 2014 Rise Set
Actual Time 6:27 AM CET 5:59 PM CET
Civil Twilight 5:55 AM CET 6:31 PM CET
Nautical Twilight 5:18 AM CET 7:09 PM CET
Astronomical Twilight 4:39 AM CET 7:47 PM CET
Moon 12:03 PM CET (3/10) 2:51 AM CET (3/10)
Length of Visible Light 12h 36m
Length of Day
11h 31m
Waxing Gibbous, 68% of the Moon is Illuminated
Mar 10
Waxing Gibbous
Mar 16
Full
Mar 24
Last Quarter
Mar 30
New
Apr 7
First Quarter

Hourly Weather History & Observations

Time (CET) Temp. Windchill Dew Point Humidity Pressure Visibility Wind Dir Wind Speed Gust Speed Precip Events Conditions
12:00 AM 37 °F - 29 °F 62% 30.49 in 6 mi WNW 2.2 mph - -   Mist
12:00 AM 37.4 °F - 28.4 °F 70% 30.42 in 5.6 mi Variable 1.2 mph - N/A   Unknown
12:30 AM 37.4 °F - 28.4 °F 70% 30.42 in 5.6 mi Calm Calm - N/A   Unknown
1:00 AM 37 °F - 29 °F 64% 30.49 in 6 mi East 2.2 mph - -   Mist
1:00 AM 37.4 °F - 30.2 °F 75% 30.42 in 5.6 mi Calm Calm - N/A   Unknown
1:30 AM 37.4 °F - 28.4 °F 70% 30.42 in 5.6 mi Calm Calm - N/A   Unknown
2:00 AM 39 °F - 29 °F 56% 30.47 in 6 mi East 4.5 mph - -   Mist
2:00 AM 39.2 °F - 28.4 °F 65% 30.42 in 5.6 mi ESE 2.3 mph - N/A   Unknown
2:30 AM 37.4 °F - 28.4 °F 70% 30.39 in 5.6 mi SE 2.3 mph - N/A   Unknown
3:00 AM 37 °F - 30 °F 66% 30.45 in 6 mi SE 4.5 mph - -   Mist
3:00 AM 37.4 °F - 30.2 °F 75% 30.39 in 5.6 mi SSE 2.3 mph - N/A   Unknown
3:30 AM 35.6 °F - 28.4 °F 75% 30.39 in 5.6 mi SSE 2.3 mph - N/A   Unknown
4:00 AM 32 °F - 24 °F 61% 30.45 in 5 mi ESE 4.5 mph - -   Mist
4:00 AM 30.2 °F - 24.8 °F 80% 30.36 in 5.6 mi Variable 1.2 mph - N/A   Unknown
4:30 AM 33.8 °F - 28.4 °F 81% 30.39 in 5.6 mi Variable 1.2 mph - N/A   Unknown
5:00 AM 33 °F - 28 °F 77% 30.45 in 6 mi South 2.2 mph - -   Mist
5:00 AM 33.8 °F - 28.4 °F 81% 30.39 in 5.6 mi Variable 1.2 mph - N/A   Unknown
5:30 AM 30.2 °F - 26.6 °F 86% 30.36 in 4.3 mi Variable 1.2 mph - N/A   Unknown
6:00 AM 31 °F - 28 °F 82% 30.44 in 3 mi NW 2.2 mph - -   Mist
6:00 AM 32.0 °F - 28.4 °F 87% 30.36 in 3.1 mi Variable 1.2 mph - N/A   Mist
6:30 AM 32.0 °F - 28.4 °F 87% 30.36 in 2.2 mi Variable 1.2 mph - N/A   Mist
7:00 AM 29 °F - 26 °F 86% 30.45 in 2 mi West 2.2 mph - -   Mist
7:00 AM 30.2 °F - 26.6 °F 86% 30.36 in 2.2 mi Variable 1.2 mph - N/A   Mist
7:30 AM 30.2 °F 26.7 °F 28.4 °F 93% 30.36 in 1.9 mi West 3.5 mph - N/A   Mist
8:00 AM 34 °F - 30 °F 80% 30.43 in 2 mi NW 2.2 mph - -   Mist
8:00 AM 33.8 °F - 30.2 °F 87% 30.36 in 1.9 mi Calm Calm - N/A   Mist
8:30 AM 37.4 °F - 30.2 °F 75% 30.36 in 2.2 mi Calm Calm - N/A   Mist
9:00 AM 42 °F - 34 °F 64% 30.42 in 2 mi SE 4.5 mph - -   Mist
9:00 AM 41.0 °F 39.0 °F 35.6 °F 81% 30.36 in 2.5 mi ESE 3.5 mph - N/A   Mist
9:18 AM 42.8 °F 41.1 °F 32.0 °F 66% 30.36 in 3.7 mi East 3.5 mph - N/A   Unknown
9:30 AM 42.8 °F 41.1 °F 32.0 °F 66% 30.36 in 4.3 mi East 3.5 mph - N/A   Unknown
10:00 AM 46 °F - 29 °F 40% 30.40 in 6 mi SSE 4.5 mph - -   Haze
10:00 AM 46.4 °F 44.3 °F 30.2 °F 53% 30.36 in 5.6 mi ESE 4.6 mph - N/A   Unknown
10:30 AM 48.2 °F - 30.2 °F 50% 30.36 in - SE 6.9 mph - N/A   Clear
11:00 AM 48 °F - 29 °F 34% 30.38 in 9 mi South 6.7 mph - -  
11:00 AM 48.2 °F - 30.2 °F 50% 30.33 in - SE 5.8 mph - N/A   Clear
11:30 AM 50.0 °F - 30.2 °F 47% 30.33 in - SE 6.9 mph - N/A   Clear
12:00 PM 51 °F - 31 °F 33% 30.36 in 9 mi ESE 6.7 mph - -  
12:00 PM 50.0 °F - 30.2 °F 47% 30.33 in - ESE 6.9 mph - N/A   Clear
12:30 PM 51.8 °F - 28.4 °F 41% 30.33 in - SE 8.1 mph - N/A   Clear
1:00 PM 52 °F - 29 °F 28% 30.33 in 9 mi SE 8.9 mph - -  
1:00 PM 51.8 °F - 28.4 °F 41% 30.30 in - SE 10.4 mph - N/A   Clear
1:30 PM 53.6 °F - 26.6 °F 35% 30.30 in - ESE 6.9 mph - N/A   Clear
2:00 PM 54 °F - 28 °F 24% 30.31 in 12 mi ESE 8.9 mph - -   Clear
2:00 PM 53.6 °F - 26.6 °F 35% 30.30 in - SSE 8.1 mph - N/A   Clear
2:30 PM 55.4 °F - 28.4 °F 36% 30.27 in - SSE 9.2 mph - N/A   Clear
3:00 PM 56 °F - 26 °F 20% 30.29 in 16 mi SE 11.2 mph - -   Clear
3:00 PM 55.4 °F - 26.6 °F 33% 30.27 in - SSE 10.4 mph - N/A   Clear
3:30 PM 55.4 °F - 24.8 °F 31% 30.27 in - SE 8.1 mph - N/A   Clear
4:00 PM 56 °F - 25 °F 19% 30.27 in 16 mi SSE 4.5 mph - -   Clear
4:00 PM 55.4 °F - 24.8 °F 31% 30.24 in - SE 9.2 mph - N/A   Clear
4:30 PM 55.4 °F - 24.8 °F 31% 30.24 in - SSE 6.9 mph - N/A   Clear
5:00 PM 54 °F - 25 °F 20% 30.27 in 16 mi ESE 4.5 mph - -   Clear
5:00 PM 55.4 °F - 24.8 °F 31% 30.24 in - ESE 4.6 mph - N/A   Clear
5:30 PM 51.8 °F - 26.6 °F 38% 30.24 in - East 4.6 mph - N/A   Clear
6:00 PM 49 °F - 25 °F 26% 30.28 in 12 mi ENE 6.7 mph - -   Clear
6:00 PM 50.0 °F - 24.8 °F 37% 30.24 in - ENE 6.9 mph - N/A   Clear
6:30 PM 46.4 °F 43.5 °F 24.8 °F 43% 30.24 in - ENE 5.8 mph - N/A   Clear
7:00 PM 44 °F - 25 °F 34% 30.32 in 16 mi East 8.9 mph - -   Clear
7:00 PM 44.6 °F 40.2 °F 24.8 °F 46% 30.27 in - ENE 8.1 mph - N/A   Clear
7:30 PM 42.8 °F 38.6 °F 24.8 °F 49% 30.27 in - ESE 6.9 mph - N/A   Clear
8:00 PM 45 °F - 25 °F 32% 30.32 in 16 mi SE 8.9 mph - -  
8:00 PM 44.6 °F 41.4 °F 24.8 °F 46% 30.27 in - SE 5.8 mph - N/A   Clear
8:30 PM 44.6 °F 40.7 °F 23.0 °F 43% 30.27 in - SSE 6.9 mph - N/A   Clear
9:00 PM 41 °F - 23 °F 36% 30.33 in 16 mi SSE 4.5 mph - -  
9:00 PM 41.0 °F 37.1 °F 23.0 °F 49% 30.27 in - SSE 5.8 mph - N/A   Clear
9:30 PM 42.8 °F 41.1 °F 23.0 °F 46% 30.27 in - South 3.5 mph - N/A   Clear
10:00 PM 42 °F - 23 °F 34% 30.33 in 19 mi SSE 4.5 mph - -  
10:00 PM 42.8 °F 39.3 °F 23.0 °F 46% 30.27 in - SSE 5.8 mph - N/A   Clear
10:30 PM 41.0 °F 37.1 °F 23.0 °F 49% 30.27 in - SSE 5.8 mph - N/A   Clear
11:00 PM 42 °F - 24 °F 36% 30.33 in 19 mi South 6.7 mph - -  
11:00 PM 42.8 °F 38.6 °F 23.0 °F 46% 30.27 in - South 6.9 mph - N/A   Clear
11:30 PM 32.0 °F 25.6 °F 21.2 °F 64% 30.27 in - SSW 6.9 mph - N/A   Clear